[[{"header":{"parameterUnit":"m.s-1","parameterCategory":1,"la1":30.2991,"la2":30.254,"lo1":-89.0895,"lo2":-89.0444,"dy":0.0017,"dx":0.0017,"nx":28,"ny":28,"refTime":"2024-02-04T09:00:00:Z","depth":0,"parameterNumber":2,"parameterNumberName":"U-component_of_WINDS"},"data":[0,0,0,0,0,0,0,0,0,0,0,0,0,0,0,0,0,0,0,0,0,0,0,0,0,0,0,0,0,0,0,0,0,0,0,0,0,0,0,0,0,0,0,0,0,0,0,0,0,0,0,0,0,0,0,0,0,0,-1.2778,-1.2779,0,-1.2823,-1.2824,-1.2824,-1.2794,-1.2793,-1.2791,-1.279,-1.2837,-1.2839,-1.2841,0,0,0,0,0,0,0,0,0,0,0,0,0,-1.2666,-1.2668,-1.2778,-1.2779,-1.2779,-1.2823,-1.2824,-1.2825,-1.2794,-1.2793,-1.2791,-1.2789,-1.2836,-1.2839,-1.2842,0,0,0,0,0,0,0,0,0,0,0,0,0,-1.2714,-1.2669,-1.2778,-1.2769,-1.2769,-1.2823,-1.2824,-1.2825,-1.2795,-1.2792,-1.279,-1.2788,-1.2835,-1.2838,-1.2842,-1.2907,0,0,-1.2854,-1.2855,0,0,0,0,0,0,0,0,-1.2711,-1.2718,-1.277,-1.277,-1.277,-1.2801,-1.2802,-1.2852,-1.2795,-1.2785,-1.279,-1.2787,-1.2826,-1.2831,-1.2844,-1.2909,-1.2911,-1.2854,-1.2856,-1.2858,-1.2859,0,0,0,0,0,0,0,-1.2708,-1.2716,-1.2796,-1.2771,-1.2771,-1.2764,-1.2768,-1.2811,-1.2817,-1.2786,-1.2784,-1.2789,-1.2826,-1.284,-1.2845,-1.2912,-1.2854,-1.2857,-1.286,-1.2861,-1.3034,-1.3037,0,0,0,0,0,0,-1.2705,-1.2713,-1.2795,-1.2797,-1.2735,-1.2767,-1.2772,-1.2793,-1.2816,-1.2818,-1.2791,-1.2788,-1.2835,-1.284,-1.2846,-1.2925,-1.2858,-1.2862,-1.2864,-1.3032,-1.3035,-1.3037,0,0,0,0,0,0,-1.2703,-1.2713,-1.2793,-1.2755,-1.2764,-1.2771,-1.2795,-1.2795,-1.2809,-1.282,-1.2821,-1.2805,-1.2833,-1.2841,-1.2892,-1.2926,-1.2863,-1.2867,-1.3029,-1.3033,-1.3036,-1.3081,0,0,0,0,0,0,-1.27,-1.2712,-1.2737,-1.2755,-1.2766,-1.2838,-1.2797,-1.2797,-1.2816,-1.2812,-1.2833,-1.2835,-1.2832,-1.2887,-1.2896,-1.293,-1.287,-1.3026,-1.3031,-1.3035,-1.3077,-1.3086,-1.3094,0,0,0,0,0,-1.2696,-1.2747,-1.2738,-1.2748,-1.2797,-1.284,-1.2846,-1.2842,-1.2819,-1.2844,-1.2851,-1.2834,-1.2921,-1.2892,-1.2903,-1.2938,-1.3024,-1.303,-1.3035,-1.3073,-1.3084,-1.3094,0,0,0,0,0,0,-1.2732,-1.275,-1.2739,-1.2798,-1.2818,-1.2835,-1.2866,-1.2854,-1.2881,-1.2876,-1.287,-1.2875,-1.2929,-1.2939,-1.2907,-1.3003,-1.2969,-1.2976,-1.2994,-1.3005,-1.3013,-1.301,-1.2873,0,0,0,0,0,-1.2747,-1.278,-1.2794,-1.2844,-1.2855,-1.2859,-1.2877,-1.2873,-1.2893,-1.2901,-1.2912,-1.2932,-1.2964,-1.2985,-1.3015,-1.3078,-1.3083,-1.3108,-1.3116,-1.3123,-1.3129,-1.3164,-1.3176,-1.3055,-1.3055,-1.3054,0,0,-1.2778,-1.2791,-1.2813,-1.2852,-1.2867,-1.2902,-1.2866,-1.2904,-1.293,-1.2907,-1.2956,-1.2965,-1.2987,-1.3046,-1.3072,-1.3055,-1.3164,-1.3129,-1.3135,-1.3138,-1.3171,-1.3183,-1.3193,-1.3058,-1.3057,-1.3057,0,0,-1.2852,-1.2865,-1.291,-1.2925,-1.2948,-1.2951,-1.2961,-1.298,-1.2985,-1.3035,-1.3019,-1.3049,-1.3104,-1.3121,-1.3137,-1.3218,-1.3204,-1.3228,-1.3272,-1.3306,-1.3316,-1.3324,-1.3354,-1.3365,-1.3235,-1.3235,-1.3235,0,-1.2887,-1.2939,-1.2934,-1.2974,-1.2992,-1.2973,-1.3018,-1.3033,-1.3064,-1.3078,-1.3058,-1.3127,-1.3141,-1.3203,-1.3223,-1.3236,-1.3249,-1.3226,-1.3315,-1.3323,-1.3331,-1.336,-1.3371,-1.3238,-1.3237,-1.3237,-1.3237,0,-1.2982,-1.3018,-1.3051,-1.3082,-1.3104,-1.3146,-1.3148,-1.3171,-1.3165,-1.317,-1.3221,-1.3237,-1.327,-1.3284,-1.3278,-1.3346,-1.3335,-1.3316,-1.3281,-1.3346,-1.3372,-1.3383,-1.3242,-1.3241,-1.324,-1.3239,0,0,-1.3079,-1.3108,-1.312,-1.3135,-1.3159,-1.3187,-1.3229,-1.3261,-1.3281,-1.3304,-1.3339,-1.3386,-1.3369,-1.3387,-1.3382,-1.3413,-1.3477,-1.339,-1.339,-1.3406,-1.3554,-1.3568,-1.3581,-1.3468,-1.347,-1.3472,-1.3552,0,-1.3155,-1.3228,-1.3225,-1.3293,-1.3327,-1.331,-1.3346,-1.3366,-1.3371,-1.3401,-1.3407,-1.3441,-1.3415,-1.3426,-1.3455,-1.3463,-1.3507,-1.3457,-1.3501,-1.3503,-1.3497,-1.3595,-1.361,-1.3685,-1.3562,-1.3564,-1.3565,0,-1.3253,-1.328,-1.3351,-1.3372,-1.3386,-1.3419,-1.3449,-1.3477,-1.3499,-1.3501,-1.3522,-1.3513,-1.3556,-1.3521,-1.358,-1.3546,-1.3564,-1.3571,-1.3574,-1.3578,-1.3538,-1.3602,-1.3709,-1.372,-1.3582,-1.358,-1.3579,0,-1.3318,-1.3371,-1.3421,-1.3434,-1.3459,-1.3482,-1.3494,-1.3513,-1.3533,-1.356,-1.3573,-1.3604,-1.3621,-1.3646,-1.3646,-1.362,-1.3706,-1.3671,-1.371,-1.371,-1.3728,-1.3727,-1.384,-1.374,-1.3739,-1.3739,-1.3739,0,-1.3403,-1.3447,-1.3451,-1.3482,-1.3531,-1.3528,-1.3578,-1.3587,-1.3604,-1.3637,-1.3624,-1.3655,-1.3653,-1.3684,-1.3685,-1.3734,-1.3742,-1.3745,-1.3745,-1.3747,-1.3747,-1.3759,-1.3753,-1.3742,-1.3741,-1.3741,-1.374,0,-1.3483,-1.3487,-1.3541,-1.356,-1.3566,-1.3602,-1.3619,-1.3648,-1.3653,-1.3695,-1.3704,-1.3712,-1.3749,-1.3751,-1.3793,-1.3794,-1.3854,-1.3848,-1.3847,-1.3846,-1.3885,-1.3881,-1.401,-1.4027,-1.3915,-1.3916,-1.3917,0,-1.3537,-1.3571,-1.3595,-1.3616,-1.3629,-1.3663,-1.3683,-1.3682,-1.3704,-1.3732,-1.3758,-1.3794,-1.3822,-1.3881,-1.3891,-1.3923,-1.3918,-1.396,-1.3922,-1.3923,-1.3919,-1.3917,-1.3921,-1.3968,-1.3969,-1.397,-1.3971,0,-1.3633,-1.3633,-1.3664,-1.3696,-1.3721,-1.3746,-1.3768,-1.3787,-1.3788,-1.3813,-1.3851,-1.3873,-1.3916,-1.3952,-1.3984,-1.3995,-1.3984,-1.3983,-1.3994,-1.3996,-1.3994,-1.3996,-1.3867,-1.398,-1.3979,-1.3978,-1.3978,-1.3977,-1.3702,-1.3732,-1.3753,-1.3788,-1.3805,-1.3828,-1.3857,-1.3866,-1.3897,-1.3932,-1.393,-1.3971,-1.3993,-1.4035,-1.4049,-1.4082,-1.4068,-1.4083,-1.4087,-1.4091,-1.4095,-1.3989,-1.4088,-1.4087,-1.4087,-1.4087,-1.4087,0,-1.3797,-1.3811,-1.3843,-1.3876,-1.3903,-1.389,-1.3915,-1.3939,-1.3976,-1.3998,-1.4026,-1.4069,-1.4104,-1.4117,-1.4151,-1.4175,-1.417,-1.4184,-1.4182,-1.4185,-1.4106,-1.4094,-1.4187,-1.4187,-1.4187,-1.4187,-1.4187,-1.4187,-1.385,-1.39,-1.3904,-1.3963,-1.3976,-1.4017,-1.4033,-1.4053,-1.407,-1.412,-1.4149,-1.4157,-1.4175,-1.421,-1.4242,-1.4245,-1.4258,-1.4274,-1.4275,-1.4201,-1.4191,-1.4181,-1.4169,-1.4277,-1.4277,-1.4351,-1.4352,-1.4352]},{"header":{"parameterUnit":"m.s-1","parameterCategory":1,"la1":30.2991,"la2":30.254,"lo1":-89.0895,"lo2":-89.0444,"dy":0.0017,"dx":0.0017,"nx":28,"ny":28,"refTime":"2024-02-04T09:00:00:Z","depth":0,"parameterNumber":3,"parameterNumberName":"V-component_of_WINDS"},"data":[0,0,0,0,0,0,0,0,0,0,0,0,0,0,0,0,0,0,0,0,0,0,0,0,0,0,0,0,0,0,0,0,0,0,0,0,0,0,0,0,0,0,0,0,0,0,0,0,0,0,0,0,0,0,0,0,0,0,-3.907,-3.9071,0,-3.9129,-3.913,-3.913,-3.9099,-3.9097,-3.9095,-3.9094,-3.9148,-3.915,-3.9153,0,0,0,0,0,0,0,0,0,0,0,0,0,-3.8926,-3.8929,-3.907,-3.9071,-3.9072,-3.9129,-3.913,-3.913,-3.9099,-3.9097,-3.9095,-3.9093,-3.9147,-3.915,-3.9154,0,0,0,0,0,0,0,0,0,0,0,0,0,-3.8987,-3.893,-3.907,-3.9063,-3.9063,-3.9129,-3.913,-3.9131,-3.9099,-3.9097,-3.9094,-3.9092,-3.9146,-3.915,-3.9154,-3.9228,0,0,-3.9167,-3.9169,0,0,0,0,0,0,0,0,-3.8984,-3.8992,-3.9063,-3.9064,-3.9064,-3.9104,-3.9098,-3.9163,-3.91,-3.9085,-3.9094,-3.9091,-3.9135,-3.914,-3.9156,-3.9231,-3.9233,-3.9168,-3.917,-3.9172,-3.9173,0,0,0,0,0,0,0,-3.898,-3.899,-3.9093,-3.9064,-3.9065,-3.9055,-3.9061,-3.9111,-3.9122,-3.9086,-3.9084,-3.9092,-3.9134,-3.9152,-3.9157,-3.9234,-3.9168,-3.9171,-3.9174,-3.9176,-3.9373,-3.9376,0,0,0,0,0,0,-3.8977,-3.8986,-3.9091,-3.9095,-3.9017,-3.906,-3.9067,-3.9093,-3.9122,-3.9124,-3.9094,-3.909,-3.9145,-3.9152,-3.9158,-3.9248,-3.9172,-3.9176,-3.9179,-3.9371,-3.9374,-3.9377,0,0,0,0,0,0,-3.8974,-3.8986,-3.9089,-3.904,-3.9053,-3.9065,-3.9095,-3.9096,-3.9113,-3.9128,-3.9129,-3.911,-3.9144,-3.9152,-3.9212,-3.9249,-3.9178,-3.9182,-3.9367,-3.9372,-3.9375,-3.9427,0,0,0,0,0,0,-3.897,-3.8985,-3.9015,-3.9041,-3.9056,-3.9143,-3.9098,-3.9099,-3.9122,-3.9117,-3.9143,-3.9145,-3.9143,-3.9205,-3.9216,-3.9254,-3.9186,-3.9364,-3.9369,-3.9374,-3.9422,-3.9432,-3.9441,0,0,0,0,0,-3.8965,-3.9025,-3.9016,-3.9029,-3.9093,-3.9145,-3.9153,-3.9151,-3.9125,-3.9154,-3.9163,-3.9144,-3.9244,-3.9212,-3.9223,-3.9263,-3.9362,-3.9368,-3.9374,-3.9417,-3.943,-3.944,0,0,0,0,0,0,-3.8999,-3.9028,-3.9019,-3.909,-3.9116,-3.914,-3.9176,-3.9164,-3.9196,-3.9191,-3.9185,-3.9191,-3.9253,-3.9264,-3.9228,-3.9337,-3.9298,-3.9307,-3.9328,-3.934,-3.9349,-3.9345,-3.9189,0,0,0,0,0,-3.9016,-3.9058,-3.908,-3.9141,-3.9155,-3.9163,-3.9186,-3.9183,-3.9208,-3.9218,-3.9232,-3.9256,-3.9292,-3.9316,-3.9351,-3.9423,-3.9428,-3.9456,-3.9466,-3.9474,-3.9481,-3.9521,-3.9533,-3.9396,-3.9396,-3.9396,0,0,-3.9049,-3.907,-3.9097,-3.9149,-3.9168,-3.9211,-3.9172,-3.9218,-3.925,-3.9224,-3.9282,-3.9293,-3.9319,-3.9386,-3.9416,-3.9397,-3.952,-3.9481,-3.9487,-3.949,-3.9528,-3.9541,-3.9553,-3.94,-3.9399,-3.9399,0,0,-3.9132,-3.9153,-3.9206,-3.9227,-3.9259,-3.9264,-3.9277,-3.9304,-3.9311,-3.937,-3.9352,-3.9388,-3.9451,-3.9471,-3.9489,-3.9583,-3.9566,-3.9594,-3.9643,-3.9682,-3.9693,-3.9702,-3.9736,-3.9748,-3.9601,-3.9601,-3.9601,0,-3.9169,-3.9235,-3.9234,-3.9283,-3.9306,-3.9289,-3.9342,-3.9362,-3.9402,-3.9417,-3.9396,-3.9477,-3.9493,-3.9564,-3.9588,-3.9603,-3.9617,-3.959,-3.9692,-3.9701,-3.971,-3.9742,-3.9754,-3.9604,-3.9604,-3.9604,-3.9603,0,-3.9279,-3.9324,-3.9364,-3.9406,-3.9434,-3.9484,-3.9491,-3.9518,-3.9513,-3.9521,-3.9581,-3.96,-3.9639,-3.9655,-3.9649,-3.9727,-3.9714,-3.9692,-3.9653,-3.9726,-3.9756,-3.9768,-3.9609,-3.9608,-3.9607,-3.9606,0,0,-3.9383,-3.9428,-3.9442,-3.9462,-3.9496,-3.953,-3.958,-3.962,-3.9644,-3.9673,-3.9714,-3.9769,-3.975,-3.9771,-3.9767,-3.9802,-3.9875,-3.9776,-3.9776,-3.9794,-3.9961,-3.9977,-3.9992,-3.9865,-3.9867,-3.9869,-3.9959,0,-3.9469,-3.9559,-3.9561,-3.9643,-3.9685,-3.967,-3.9713,-3.9738,-3.9747,-3.9783,-3.9792,-3.9832,-3.9803,-3.9816,-3.9849,-3.9859,-3.9908,-3.9853,-3.9902,-3.9904,-3.9896,-4.0007,-4.0024,-4.0108,-3.9971,-3.9973,-3.9974,0,-3.958,-3.9616,-3.9703,-3.9733,-3.9751,-3.979,-3.9828,-3.9863,-3.9891,-3.9895,-3.992,-3.9911,-3.9961,-3.9922,-3.999,-3.9952,-3.9972,-3.998,-3.9983,-3.9988,-3.9943,-4.0014,-4.0135,-4.0148,-3.9992,-3.9991,-3.999,0,-3.9649,-3.9718,-3.9779,-3.9797,-3.9833,-3.9861,-3.9877,-3.9903,-3.9928,-3.996,-3.9976,-4.0013,-4.0033,-4.0062,-4.0063,-4.0035,-4.0132,-4.0093,-4.0136,-4.0136,-4.0157,-4.0156,-4.0283,-4.0171,-4.017,-4.017,-4.017,0,-3.9744,-3.9798,-3.9811,-3.9849,-3.9908,-3.991,-3.9969,-3.9982,-4.0006,-4.0044,-4.0033,-4.0069,-4.0069,-4.0106,-4.0107,-4.0164,-4.0173,-4.0177,-4.0176,-4.0178,-4.0177,-4.0191,-4.0185,-4.0173,-4.0173,-4.0172,-4.0171,0,-3.983,-3.9841,-3.9907,-3.9938,-3.9946,-3.9989,-4.0014,-4.0049,-4.0058,-4.0108,-4.0119,-4.0132,-4.0175,-4.018,-4.0229,-4.023,-4.0299,-4.0292,-4.029,-4.0289,-4.0332,-4.0328,-4.0472,-4.0491,-4.0367,-4.0368,-4.0369,0,-3.989,-3.9931,-3.9967,-3.9994,-4.0013,-4.0055,-4.0082,-4.0085,-4.0112,-4.0149,-4.0179,-4.0222,-4.0256,-4.0325,-4.0338,-4.0375,-4.0369,-4.0417,-4.0375,-4.0376,-4.037,-4.0368,-4.0372,-4.0425,-4.0427,-4.0428,-4.0429,0,-3.9995,-3.9999,-4.0039,-4.0082,-4.0114,-4.0147,-4.0177,-4.0199,-4.0206,-4.0237,-4.0283,-4.031,-4.0362,-4.0404,-4.0441,-4.0456,-4.0443,-4.0442,-4.0454,-4.0456,-4.0454,-4.0456,-4.0312,-4.0439,-4.0438,-4.0437,-4.0436,-4.0436,-4.007,-4.0107,-4.0139,-4.0184,-4.0208,-4.0238,-4.0273,-4.0288,-4.0326,-4.0371,-4.037,-4.042,-4.0447,-4.0497,-4.0515,-4.0553,-4.0536,-4.0554,-4.0558,-4.0562,-4.0567,-4.0448,-4.0559,-4.0559,-4.0559,-4.0558,-4.0558,0,-4.0175,-4.0196,-4.0237,-4.0282,-4.0318,-4.0306,-4.034,-4.0369,-4.0414,-4.0442,-4.0477,-4.053,-4.0571,-4.0588,-4.0628,-4.0655,-4.0651,-4.0666,-4.0663,-4.0667,-4.0579,-4.0565,-4.0669,-4.0669,-4.0669,-4.0669,-4.0669,-4.0669,-4.0234,-4.0296,-4.0305,-4.0379,-4.0398,-4.0449,-4.047,-4.0496,-4.0519,-4.0579,-4.0615,-4.0627,-4.065,-4.0692,-4.0729,-4.0733,-4.0748,-4.0766,-4.0767,-4.0684,-4.0673,-4.0662,-4.0649,-4.0769,-4.0769,-4.0852,-4.0853,-4.0853]}]]